This is the latest recevied weather packets stored in our database for station/object VK6DUG. If no packets are shown the sender has not sent any weather packets the latest 10 day(s).
| Time | Temp. | Humidity | Pressure | Rain* | Wind** | Luminosity | Snow |
|---|---|---|---|---|---|---|---|
| 1777727420 | 10.56° C | 85% | 1028.6 hPa | 0 mm | - | 0 W/m² | - |
| 1777726818 | 11.11° C | 84% | 1028.5 hPa | 0 mm | - | 0 W/m² | - |
| 1777726235 | 11.67° C | 83% | 1028.5 hPa | 0 mm | - | 0 W/m² | - |
| 1777725631 | 12.22° C | 82% | 1028.5 hPa | 0 mm | - | 0 W/m² | - |
| 1777725027 | 12.22° C | 82% | 1028.5 hPa | 0 mm | - | 0 W/m² | - |
| 1777724424 | 12.22° C | 82% | 1028.4 hPa | 0 mm | - | 0 W/m² | - |
| 1777723820 | 12.22° C | 81% | 1028.4 hPa | 0 mm | - | 0 W/m² | - |
| 1777723216 | 12.22° C | 80% | 1028.4 hPa | 0 mm | - | 0 W/m² | - |
| 1777722633 | 12.78° C | 80% | 1028.4 hPa | 0 mm | - | 0 W/m² | - |
| 1777722031 | 12.78° C | 80% | 1028.3 hPa | 0 mm | - | 0 W/m² | - |
| 1777721428 | 12.78° C | 79% | 1028.3 hPa | 0 mm | - | 0 W/m² | - |
| 1777720825 | 12.22° C | 78% | 1028.2 hPa | 0 mm | - | 0 W/m² | - |
| 1777720222 | 12.22° C | 77% | 1028 hPa | 0 mm | - | 0 W/m² | - |
| 1777719619 | 12.22° C | 76% | 1028 hPa | 0 mm | - | 0 W/m² | - |
| 1777719017 | 12.78° C | 76% | 1028 hPa | 0 mm | - | 0 W/m² | - |
| 1777718434 | 12.78° C | 74% | 1028 hPa | 0 mm | - | 0 W/m² | - |
| 1777717831 | 13.33° C | 73% | 1027.8 hPa | 0 mm | - | 0 W/m² | - |
| 1777717228 | 13.89° C | 72% | 1027.8 hPa | 0 mm | - | 0 W/m² | - |
| 1777716625 | 14.44° C | 70% | 1027.7 hPa | 0 mm | - | 0 W/m² | - |
| 1777716022 | 15° C | 68% | 1027.4 hPa | 0 mm | - | 0 W/m² | - |
| 1777715420 | 15.56° C | 67% | 1027.4 hPa | 0 mm | - | 1 W/m² | - |
| 1777714816 | 16.11° C | 65% | 1027.3 hPa | 0 mm | - | 4 W/m² | - |
| 1777714234 | 16.11° C | 64% | 1027.3 hPa | 0 mm | - | 11 W/m² | - |
| 1777713632 | 16.11° C | 64% | 1027.4 hPa | 0 mm | - | 22 W/m² | - |
| 1777713029 | 16.67° C | 65% | 1027.3 hPa | 0 mm | - | 35 W/m² | - |
* Rain latest hour (hover to see other rain measurements)
** Current wind speed in m/s (hover to see current wind gust speed)